#timestamp,LO_Frequency,Hit,StdDev 
1561042815.4,286046996.5,N
1561042835.2,286047000.8,N
1561042855.0,286046998.3,N
1561042855.9,286046998.3,N
1561042875.8,286046999.0,N
1561042895.6,286047000.2,N
1561042915.5,286047002.1,N
1561042935.3,286047000.6,N
1561042955.1,286047000.6,N
1561042975.9,286046998.8,N
1561042995.7,286046995.0,N
1561043015.5,286046992.6,N
1561043035.4,286046991.6,N
1561043055.2,286046987.0,Y
1561043075.1,286046985.6,P
1561043076.0,286046985.6,N
1561043095.8,286046990.0,N
1561043115.7,286046988.5,N
1561043135.5,286046991.2,N
1561043155.3,286046989.2,N
1561043175.2,286046987.5,Y
1561043195.0,286046997.8,P
1561043195.9,286046997.8,N
1561043215.7,286046993.9,N
1561043235.6,286046994.2,N
1561043255.4,286046993.3,N
1561043275.3,286046991.7,Y
1561043295.1,286046995.1,P
1561043315.8,286046999.1,N
1561043335.7,286046997.6,N
1561043355.5,286046993.8,Y
1561043375.4,286046998.9,P
1561043395.2,286046998.4,N
1561043415.0,286046998.6,N
1561043415.9,286046998.6,N
1561043435.8,286047000.3,N
1561043455.6,286047002.6,N
1561043475.5,286046999.7,N
1561043495.3,286046999.0,N
1561043515.1,286046996.6,N
1561043535.9,286046996.6,N
1561043555.7,286046999.1,N
1561043575.5,286046998.2,N
1561043595.4,286047000.7,N
1561043615.2,286046999.9,N
1561043635.1,286047000.0,N
1561043636.0,286047000.0,N
1561043655.8,286046999.3,N
1561043675.6,286046997.1,N
1561043695.5,286046999.5,N
1561043715.3,286047001.2,N
1561043735.1,286046996.6,N
1561043755.9,286046999.2,N
1561043775.7,286046997.0,N
1561043795.6,286046998.7,N
1561043815.4,286047000.7,N
1561043835.2,286047004.0,N
1561043855.1,286047005.8,Y
1561043856.0,286047005.8,P
1561043875.8,286047006.7,N
1561043895.7,286047004.8,N
1561043915.5,286047004.9,N
1561043935.3,286047004.5,N
1561043955.2,286047004.8,N
1561043975.0,286047005.6,N
1561043975.9,286047005.6,N
1561043995.7,286047002.7,N
1561044015.6,286047002.8,N
1561044035.4,286046999.7,N
1561044055.3,286046999.3,N
1561044075.1,286046998.8,N
1561044076.0,286046998.8,N
1561044095.8,286047002.6,N
1561044115.7,286047003.5,N
1561044135.5,286047004.2,N
1561044155.3,286047006.0,N
1561044175.2,286047003.8,N
1561044195.0,286047006.0,N
1561044195.9,286047006.0,N
1561044215.8,286047006.9,N
1561044235.6,286047006.1,N
1561044255.4,286047007.4,N
1561044275.3,286047006.2,N
1561044295.1,286047006.1,N
1561044315.9,286047008.3,Y
1561044335.7,286047004.8,P
1561044355.5,286047005.2,P
1561044375.4,286047004.5,P
1561044395.2,286047005.7,Y
1561044415.0,286046998.1,P
1561044415.9,286046998.1,N
1561044435.8,286046999.5,N
1561044455.6,286046994.9,N
1561044475.5,286046995.3,N
1561044495.3,286046994.3,N
1561044515.1,286046999.0,N
1561044535.9,286046997.7,N
1561044555.7,286046996.5,N
1561044575.5,286046996.5,N
1561044595.4,286046999.9,N
1561044615.2,286046999.7,N
1561044635.1,286047004.0,N
1561044636.0,286047004.0,N
1561044655.8,286047003.3,N
1561044675.6,286047006.0,N
1561044695.5,286047003.9,N
1561044715.3,286047000.8,N
1561044735.2,286046995.9,N
1561044755.9,286046995.9,N
1561044775.7,286046995.0,N
1561044795.6,286046998.0,N
1561044815.4,286046994.2,N
1561044835.2,286046993.8,N
1561044855.1,286046995.5,N
1561044856.0,286046995.5,N
1561044875.8,286046999.6,N
1561044895.7,286046998.4,N
1561044915.5,286047002.5,N
1561044935.3,286047001.8,N
1561044955.2,286047002.1,N
1561044975.0,286047002.0,N
1561044975.9,286047002.0,N
1561044995.8,286047003.3,N
1561045015.6,286047005.9,N
1561045035.5,286047002.9,N
1561045055.3,286047005.4,N
1561045075.1,286047004.7,N
1561045095.9,286047009.1,N
1561045115.7,286047006.7,N
1561045135.5,286047004.9,N
1561045155.4,286047007.5,N
1561045175.2,286047005.0,N
1561045195.1,286047006.8,N
1561045196.0,286047006.8,N
1561045215.8,286047007.8,N
1561045235.6,286047010.1,N
1561045255.5,286047009.4,N
1561045275.3,286047013.2,N
1561045295.1,286047015.2,N
1561045315.9,286047014.2,N
1561045335.7,286047014.4,N
1561045355.6,286047014.4,N
1561045375.4,286047011.5,N
1561045395.2,286047011.4,N
1561045415.1,286047013.8,N
1561045416.0,286047013.8,N
1561045435.8,286047014.2,Y
1561045455.7,286047008.9,P
1561045475.5,286047010.4,P
1561045495.3,286047010.5,P
1561045515.2,286047011.3,Y
1561045535.0,286047009.2,P
1561045535.9,286047009.2,P
1561045555.8,286047012.0,P
1561045575.6,286047017.2,Y
1561045595.4,286047008.7,P
1561045615.3,286047006.0,P
1561045635.1,286047005.1,P
1561045655.8,286047005.3,N
1561045675.7,286047004.9,N
1561045695.5,286047006.4,Y
1561045715.4,286046999.1,P
1561045735.2,286046994.9,N
1561045755.0,286046992.6,N
1561045755.9,286046992.6,N
1561045775.8,286046991.5,N
1561045795.6,286046990.6,N
1561045815.5,286046992.4,N
1561045835.3,286046992.1,N
1561045855.1,286046996.3,N
1561045875.9,286046997.5,N
1561045895.7,286046998.8,N
1561045915.5,286047000.6,N
1561045935.4,286047002.5,N
1561045955.2,286047001.3,N
1561045975.1,286047004.4,N
1561045976.0,286047004.4,N
1561045995.8,286047005.9,N
1561046015.6,286047003.1,N
1561046035.5,286047006.8,N
1561046055.3,286047008.0,N
1561046075.1,286047007.7,N
1561046095.9,286047010.0,N
1561046115.7,286047011.9,N
1561046135.6,286047014.0,N
1561046155.4,286047014.8,N
1561046175.2,286047016.6,N
1561046195.1,286047015.9,N
1561046196.0,286047015.9,N
1561046215.8,286047013.7,N
1561046235.7,286047011.7,N
1561046255.5,286047012.0,N
1561046275.3,286047009.4,N
1561046295.2,286047010.2,N
1561046315.0,286047010.0,N
1561046315.9,286047010.0,N
1561046335.7,286047010.7,N
1561046355.6,286047009.5,N
1561046375.4,286047012.4,N
1561046395.3,286047015.6,N
